Location: Beetenbrück
(52.8113°N, 9.5946°E)
Time: 21:36:50
(UTC+00:00)

Landsat 5 - Pass Details

Date: 14 April 2026
Orbit: 507 x 601 km, 98.1° (Epoch: 12 May)

Event Time Altitude Azimuth Distance (km) Brightness Sun altitude
Rises 23:44:19 0° 15° (NNE) 2,832 8.2 -27.3°
Reaches altitude 10° 23:46:29 10° 17° (NNE) 1,936 7.1 -27.3°
Enters shadow 23:49:43 51° 29° (NNE) 754 4.2 -27.2°
